FW7808 Weather Reports


Display with metric or nautical units.
time (UTC)temp
F
wind
direction
speed
MPH
gust
MPH
rain 1hr
in
rain 24hr
in
rain mn
in
humidity
%
barometer
mb
20210922020110 75 94 0.0 0.0 0.00 0.22 0.22 91 1018.2
20210922015610 75 94 0.0 0.0 0.00 0.22 0.22 91 1018.1
20210922015109 75 94 0.0 0.0 0.00 0.22 0.22 91 1018.4
20210922014607 75 94 0.0 0.0 0.00 0.22 0.22 91 1018.4
20210922014105 75 94 0.0 0.0 0.00 0.22 0.22 91 1018.2
20210922013605 75 94 0.0 0.0 0.00 0.22 0.22 91 1018.2
20210922013103 75 94 0.0 0.0 0.00 0.22 0.22 91 1018.0
20210922012601 75 94 0.0 0.0 0.00 0.22 0.22 91 1018.1
20210922012100 75 94 0.0 0.0 0.00 0.22 0.22 91 1017.8
20210922011558 75 94 0.0 1.0 0.00 0.22 0.22 90 1018.0
20210922011057 75 94 0.0 0.0 0.00 0.22 0.22 90 1018.0
20210922010555 75 94 0.0 0.0 0.00 0.22 0.22 90 1017.8
20210922010055 75 94 0.0 0.0 0.00 0.22 0.22 90 1017.8
20210922005554 75 95 0.0 0.0 0.00 0.22 0.22 90 1017.9
20210922005054 75 95 0.0 0.0 0.00 0.22 0.22 89 1017.6
20210922004552 76 95 0.0 0.0 0.00 0.22 0.22 89 1017.5
20210922004050 76 95 0.0 1.0 0.00 0.22 0.22 89 1017.7
20210922003548 76 95 0.0 0.0 0.00 0.22 0.22 88 1017.3
20210922003047 76 95 0.0 0.0 0.00 0.22 0.22 88 1017.2
20210922002541 76 95 0.0 0.0 0.00 0.22 0.22 88 1017.1
20210922002038 76 94 0.0 0.0 0.00 0.22 0.22 87 1017.2
20210922001537 76 94 0.0 0.0 0.00 0.22 0.22 87 1017.2
20210922001035 77 94 0.0 0.0 0.00 0.22 0.22 87 1017.3
20210922000533 77 95 0.0 0.0 0.00 0.22 0.22 86 1017.2
20210922000031 77 95 0.0 0.0 0.00 0.22 0.22 86 1017.1
20210921235529 77 95 0.0 0.0 0.00 0.22 0.22 85 1017.2
20210921235029 77 95 0.0 0.0 0.00 0.22 0.22 85 1017.2
20210921234526 78 95 0.0 0.0 0.00 0.22 0.22 84 1017.0
20210921234025 78 95 0.0 0.0 0.00 0.22 0.22 83 1017.1
20210921233524 78 95 0.0 0.0 0.00 0.22 0.22 83 1017.2
20210921233022 79 95 0.0 0.0 0.00 0.22 0.22 84 1017.0
20210921232520 80 95 1.0 1.0 0.00 0.22 0.22 82 1017.1
20210921232020 81 95 0.0 0.0 0.00 0.22 0.22 79 1016.9
20210921231519 81 95 0.0 0.0 0.00 0.22 0.22 80 1016.6
20210921231017 83 95 0.0 0.0 0.00 0.22 0.22 75 1016.9
20210921230515 84 95 0.0 0.0 0.00 0.22 0.22 71 1016.7
20210921230010 85 95 0.0 0.0 0.00 0.22 0.22 69 1016.8
20210921225510 86 95 0.0 0.0 0.00 0.22 0.22 69 1016.4
20210921225009 86 95 0.0 0.0 0.00 0.22 0.22 68 1016.7
20210921224509 85 95 0.0 1.0 0.00 0.22 0.22 70 1016.7
20210921224008 85 95 0.0 0.0 0.00 0.22 0.22 69 1016.7
20210921223507 85 95 0.0 0.0 0.00 0.22 0.22 70 1016.5
20210921223006 85 95 0.0 1.0 0.00 0.22 0.22 69 1016.6
20210921222503 87 104 0.0 0.0 0.00 0.22 0.22 67 1016.6
20210921222001 86 110 0.0 1.0 0.00 0.22 0.22 68 1016.6
20210921221501 86 112 1.0 1.0 0.00 0.22 0.22 68 1016.8
20210921221000 86 108 0.0 1.0 0.00 0.22 0.22 68 1016.6
20210921220458 86 108 1.0 1.0 0.00 0.22 0.22 70 1016.5
20210921215956 85 108 0.0 1.0 0.00 0.22 0.22 71 1016.7
20210921215452 85 100 2.0 2.0 0.00 0.22 0.22 73 1016.7
20210921214951 84 96 1.0 2.0 0.00 0.22 0.22 74 1016.8
20210921214450 84 100 0.0 2.0 0.00 0.22 0.22 76 1016.7
20210921213949 84 102 0.0 1.0 0.00 0.22 0.22 75 1016.7
20210921213448 84 104 1.0 3.0 0.00 0.22 0.22 75 1016.6
20210921212946 84 40 3.0 7.0 0.00 0.22 0.22 74 1016.8
20210921212444 85 126 3.0 5.0 0.00 0.22 0.22 76 1016.9
20210921211944 85 51 2.0 3.0 0.00 0.22 0.22 73 1016.7
20210921211441 84 100 1.0 1.0 0.00 0.22 0.22 71 1017.0
20210921210940 84 117 0.0 2.0 0.00 0.22 0.22 76 1016.8
20210921210440 84 123 0.0 1.0 0.00 0.22 0.22 77 1016.7
20210921205938 84 80 0.0 0.0 0.00 0.22 0.22 77 1016.9
20210921205434 84 80 1.0 1.0 0.00 0.22 0.22 74 1016.9
20210921204932 85 81 0.0 2.0 0.00 0.22 0.22 74 1016.7
20210921204431 84 88 0.0 1.0 0.00 0.22 0.22 74 1016.8
20210921203930 84 95 0.0 2.0 0.00 0.22 0.22 75 1016.7
20210921203425 84 94 0.0 1.0 0.00 0.22 0.22 76 1016.8
20210921202922 84 95 0.0 1.0 0.00 0.22 0.22 76 1016.9
20210921202422 84 102 1.0 1.0 0.00 0.22 0.22 75 1017.0
20210921201921 84 91 0.0 2.0 0.00 0.22 0.22 74 1016.9
20210921201418 84 91 0.0 0.0 0.00 0.22 0.22 76 1017.0
20210921200916 83 91 0.0 0.0 0.00 0.22 0.22 78 1017.2
20210921200415 83 91 1.0 1.0 0.00 0.22 0.22 79 1017.2
20210921195915 83 91 0.0 1.0 0.00 0.22 0.22 78 1017.3
20210921195413 83 93 0.0 1.0 0.00 0.22 0.22 78 1017.2
20210921194910 83 103 0.0 1.0 0.00 0.22 0.22 78 1017.2
20210921194409 83 90 0.0 1.0 0.00 0.22 0.22 79 1017.3
20210921193907 83 92 0.0 1.0 0.00 0.22 0.22 77 1017.5
20210921193407 84 89 2.0 2.0 0.00 0.22 0.22 73 1017.5
20210921192906 84 82 2.0 2.0 0.00 0.22 0.22 73 1017.1
20210921192404 83 96 0.0 2.0 0.00 0.22 0.22 77 1017.7
20210921191903 82 90 2.0 2.0 0.00 0.22 0.22 79 1017.8
20210921191402 82 102 0.0 1.0 0.00 0.22 0.22 80 1017.6
20210921190901 82 102 0.0 1.0 0.00 0.22 0.22 81 1017.7
20210921190359 82 134 1.0 2.0 0.00 0.22 0.22 77 1017.9
20210921185857 83 190 2.0 3.0 0.00 0.22 0.22 74 1017.8
20210921185355 83 122 1.0 3.0 0.00 0.22 0.22 74 1017.8
20210921184853 85 265 2.0 3.0 0.00 0.22 0.22 72 1017.7
20210921184353 86 111 0.0 0.0 0.00 0.22 0.22 71 1018.0
20210921183850 86 110 1.0 1.0 0.00 0.22 0.22 69 1018.3
20210921183348 84 121 1.0 1.0 0.00 0.22 0.22 70 1018.1
20210921182844 86 106 0.0 1.0 0.00 0.22 0.22 69 1018.3
20210921182344 86 113 0.0 1.0 0.00 0.22 0.22 70 1018.2
20210921181841 85 272 2.0 3.0 0.00 0.22 0.22 71 1018.4
20210921181340 85 149 2.0 2.0 0.00 0.22 0.22 71 1018.5
20210921180834 83 151 1.0 2.0 0.00 0.22 0.22 73 1018.8
20210921180334 83 160 1.0 2.0 0.00 0.22 0.22 75 1018.8
20210921175834 83 130 0.0 2.0 0.00 0.22 0.22 73 1018.7
20210921175333 83 119 1.0 1.0 0.00 0.22 0.22 73 1019.1
20210921174831 84 78 0.0 2.0 0.00 0.22 0.22 70 1019.1
20210921174329 85 119 0.0 1.0 0.00 0.22 0.22 69 1019.2
20210921173827 86 129 0.0 2.0 0.00 0.22 0.22 68 1019.2
20210921173326 86 123 0.0 2.0 0.00 0.22 0.22 69 1019.5
20210921172823 86 125 1.0 2.0 0.00 0.22 0.22 66 1019.6
20210921172323 85 130 1.0 1.0 0.00 0.22 0.22 70 1019.5
20210921171821 83 140 0.0 1.0 0.00 0.22 0.22 75 1019.6
20210921171319 83 141 1.0 3.0 0.00 0.22 0.22 74 1019.7
20210921170818 83 158 1.0 2.0 0.00 0.22 0.22 74 1019.6
20210921170316 82 152 1.0 2.0 0.00 0.22 0.22 77 1019.6
20210921165815 83 28 2.0 2.0 0.00 0.22 0.22 74 1019.6
20210921165314 82 99 1.0 5.0 0.00 0.22 0.22 74 1019.8
20210921164814 84 114 0.0 3.0 0.00 0.22 0.22 73 1020.0
20210921164313 85 89 1.0 2.0 0.00 0.22 0.22 73 1019.9
20210921163807 83 140 0.0 1.0 0.00 0.22 0.22 75 1020.1
20210921163306 81 138 1.0 1.0 0.00 0.22 0.22 79 1020.0
20210921162805 81 135 0.0 0.0 0.00 0.22 0.22 77 1020.0
20210921162306 81 135 0.0 1.0 0.00 0.22 0.22 79 1020.2
20210921161802 81 135 1.0 1.0 0.00 0.22 0.22 77 1019.9
20210921161259 82 130 0.0 2.0 0.00 0.22 0.22 75 1020.1
20210921160759 84 148 1.0 2.0 0.00 0.22 0.22 75 1020.2
20210921160255 84 103 1.0 2.0 0.00 0.22 0.22 74 1020.2
20210921155753 83 183 2.0 2.0 0.00 0.22 0.22 74 1020.0
20210921155253 82 125 0.0 2.0 0.00 0.22 0.22 75 1020.4
20210921154751 81 100 1.0 2.0 0.00 0.22 0.22 76 1020.3
20210921154251 81 80 1.0 3.0 0.00 0.22 0.22 76 1020.1
20210921153750 81 122 0.0 1.0 0.00 0.22 0.22 76 1020.2
20210921153249 79 93 2.0 2.0 0.00 0.22 0.22 80 1020.2
20210921152748 80 62 2.0 3.0 0.00 0.22 0.22 80 1020.4
20210921152248 79 118 0.0 1.0 0.00 0.22 0.22 81 1020.5
20210921151745 79 79 2.0 2.0 0.00 0.22 0.22 81 1020.3
20210921151245 80 117 0.0 1.0 0.00 0.22 0.22 82 1020.1
20210921150744 79 131 0.0 1.0 0.00 0.22 0.22 83 1020.1
20210921150242 78 92 1.0 2.0 0.00 0.22 0.22 83 1020.3
20210921145740 78 108 0.0 3.0 0.00 0.22 0.22 83 1020.0
20210921145238 80 94 0.0 0.0 0.00 0.22 0.22 80 1020.1
20210921144737 80 92 0.0 1.0 0.00 0.22 0.22 82 1020.1
20210921144235 79 127 0.0 1.0 0.00 0.22 0.22 81 1020.2
20210921143733 77 128 0.0 0.0 0.00 0.22 0.22 85 1020.0
20210921143231 77 97 0.0 1.0 0.00 0.22 0.22 85 1020.2
20210921142730 76 106 0.0 0.0 0.00 0.22 0.22 89 1020.1
20210921142229 74 106 0.0 0.0 0.00 0.22 0.22 94 1020.2
20210921141726 74 91 1.0 1.0 0.00 0.22 0.22 94 1020.1
20210921141223 74 91 1.0 1.0 0.00 0.22 0.22 95 1019.9
20210921140722 73 91 0.0 0.0 0.00 0.22 0.22 95 1019.9
20210921140221 74 91 0.0 0.0 0.00 0.22 0.22 95 1019.9
20210921135719 74 91 0.0 0.0 0.00 0.22 0.22 95 1019.8
20210921135218 74 91 0.0 0.0 0.00 0.22 0.22 95 1019.9
20210921134717 74 91 0.0 0.0 0.07 0.22 0.22 95 1019.8
20210921134216 74 94 0.0 0.0 0.07 0.22 0.22 95 1019.9
20210921133713 74 92 0.0 1.0 0.00 0.20 0.20 94 1019.8
20210921133213 74 97 0.0 1.0 0.00 0.20 0.20 94 1019.7
20210921132712 74 108 0.0 0.0 0.47 0.20 0.20 94 1019.8
20210921132210 74 160 3.0 5.0 1.01 0.20 0.20 94 1019.7
20210921131709 74 109 1.0 3.0 0.54 0.13 0.13 94 1019.8
20210921131208 75 135 2.0 2.0 0.00 0.03 0.03 94 1019.6
20210921130706 75 97 1.0 1.0 0.00 0.03 0.03 95 1019.7
20210921130205 75 97 0.0 0.0 0.00 0.03 0.03 95 1019.6
20210921125703 75 97 0.0 0.0 0.00 0.03 0.03 95 1019.6
20210921125203 75 97 0.0 1.0 0.00 0.03 0.03 95 1019.5
20210921124700 75 97 0.0 0.0 0.00 0.03 0.03 95 1019.5
20210921124159 74 97 0.0 0.0 0.00 0.03 0.03 95 1019.4
20210921123658 74 97 0.0 1.0 0.00 0.03 0.03 95 1019.5
20210921123158 74 97 0.0 0.0 0.00 0.03 0.03 95 1019.4
20210921122656 74 97 0.0 1.0 0.00 0.03 0.03 95 1019.4
20210921122156 74 97 0.0 1.0 0.00 0.03 0.03 95 1019.3
20210921121655 74 96 0.0 1.0 0.00 0.03 0.03 95 1019.4
20210921121154 74 97 0.0 1.0 0.00 0.03 0.03 95 1019.4
20210921120653 74 98 0.0 0.0 0.00 0.03 0.03 95 1019.2
20210921120153 74 98 0.0 0.0 0.04 0.03 0.03 95 1019.1
20210921115651 74 97 0.0 0.0 0.04 0.03 0.03 95 1019.1
20210921115150 74 98 0.0 0.0 0.00 0.03 0.03 95 1019.0
20210921114649 74 97 0.0 0.0 0.00 0.03 0.03 95 1019.3
20210921114148 74 97 0.0 1.0 0.00 0.03 0.03 95 1019.2
20210921113646 74 100 0.0 0.0 0.00 0.03 0.03 95 1019.2
20210921113145 74 117 0.0 0.0 0.00 0.03 0.03 95 1019.0
20210921112644 74 117 0.0 0.0 0.00 0.03 0.03 95 1019.0
20210921112143 74 117 0.0 0.0 0.00 0.03 0.03 95 1019.1
20210921111617 74 117 0.0 0.0 0.00 0.03 0.03 94 1018.8
20210921111056 74 117 0.0 0.0 0.00 0.03 0.03 94 1018.8
20210921110555 74 117 0.0 0.0 0.00 0.03 0.03 94 1018.7
20210921110053 74 117 0.0 0.0 0.00 0.03 0.03 94 1018.5
20210921105553 74 117 0.0 0.0 0.00 0.03 0.03 94 1018.4
20210921105049 74 117 0.0 0.0 0.00 0.03 0.03 94 1018.5
20210921104548 74 117 0.0 0.0 0.00 0.03 0.03 94 1018.4
20210921104047 74 117 0.0 0.0 0.00 0.03 0.03 94 1018.2
20210921103545 74 117 0.0 0.0 0.00 0.03 0.03 94 1018.4
20210921103044 74 117 0.0 0.0 0.00 0.03 0.03 94 1018.1
20210921102541 74 117 0.0 0.0 0.00 0.03 0.03 94 1018.2
20210921102041 74 117 0.0 0.0 0.00 0.03 0.03 94 1018.2
20210921101540 74 117 0.0 0.0 0.00 0.03 0.03 94 1018.2
20210921101038 74 117 0.0 0.0 0.00 0.03 0.03 94 1018.0
20210921100535 74 117 0.0 0.0 0.00 0.03 0.03 94 1018.0
20210921100034 74 117 0.0 0.0 0.00 0.03 0.03 94 1018.0
20210921095528 74 117 0.0 0.0 0.00 0.03 0.03 94 1017.7
20210921095027 74 117 0.0 0.0 0.00 0.03 0.03 94 1018.0
20210921094526 74 117 0.0 0.0 0.00 0.03 0.03 94 1017.9
20210921094025 75 117 1.0 1.0 0.18 0.03 0.03 94 1018.0
20210921093522 74 117 0.0 0.0 0.18 0.03 0.03 93 1018.0
20210921093020 74 117 0.0 0.0 0.00 0.00 0.00 93 1018.1
20210921092519 74 117 0.0 0.0 0.00 0.00 0.00 93 1017.7
20210921092019 74 117 0.0 0.0 0.00 0.00 0.00 93 1017.9
20210921091518 74 117 0.0 0.0 0.00 0.00 0.00 93 1017.7
20210921091014 74 117 0.0 0.0 0.00 0.00 0.00 93 1017.7
20210921090512 74 117 0.0 0.0 0.00 0.00 0.00 93 1017.6
20210921090011 74 117 0.0 0.0 0.00 0.00 0.00 93 1017.8
20210921085510 74 117 0.0 0.0 0.00 0.00 0.00 93 1017.7
20210921085009 74 117 0.0 0.0 0.00 0.00 0.00 93 1017.8
20210921084506 74 117 0.0 0.0 0.00 0.00 0.00 93 1017.7
20210921084006 74 117 0.0 0.0 0.00 0.00 0.00 93 1017.6
20210921083504 74 117 0.0 0.0 0.00 0.00 0.00 93 1017.6
20210921083004 74 117 0.0 0.0 0.00 0.00 0.00 93 1017.6
20210921082504 74 117 0.0 0.0 0.00 0.00 0.00 93 1017.3
20210921082002 74 117 0.0 0.0 0.00 0.00 0.00 93 1017.4
20210921081502 74 117 0.0 0.0 0.00 0.00 0.00 93 1017.3
20210921081002 74 117 0.0 0.0 0.00 0.00 0.00 93 1017.5
20210921080502 74 117 0.0 0.0 0.00 0.00 0.00 93 1017.8
20210921080000 74 117 0.0 0.0 0.00 0.00 0.00 93 1017.5
20210921075500 74 117 0.0 0.0 0.00 0.00 0.00 93 1017.6
20210921074959 74 117 0.0 0.0 0.00 0.00 0.00 93 1017.5
20210921074458 74 117 0.0 0.0 0.00 0.00 0.00 93 1017.5
20210921073956 74 117 0.0 0.0 0.00 0.00 0.00 93 1017.5
20210921073454 74 117 0.0 0.0 0.00 0.00 0.00 93 1017.6
20210921072954 74 117 0.0 0.0 0.00 0.00 0.00 93 1017.5
20210921072453 74 117 0.0 1.0 0.00 0.00 0.00 93 1017.3
20210921071952 74 117 0.0 0.0 0.00 0.00 0.00 92 1017.2
20210921071450 74 117 0.0 0.0 0.00 0.00 0.00 92 1017.3
20210921070948 74 117 0.0 0.0 0.00 0.00 0.00 92 1017.3
20210921070447 74 114 0.0 1.0 0.00 0.00 0.00 92 1017.4
20210921065945 74 114 0.0 0.0 0.00 0.00 0.00 92 1017.4
20210921065444 74 114 0.0 0.0 0.00 0.00 0.00 92 1017.4
20210921064943 74 114 0.0 0.0 0.00 0.00 0.00 92 1017.4
20210921064442 74 114 0.0 0.0 0.00 0.00 0.00 92 1017.6
20210921063940 74 115 0.0 0.0 0.00 0.00 0.00 92 1017.7
20210921063439 74 115 0.0 0.0 0.00 0.00 0.00 92 1017.7
20210921062937 74 115 0.0 0.0 0.00 0.00 0.00 92 1017.5
20210921062436 74 114 0.0 0.0 0.00 0.00 0.00 92 1017.9
20210921061921 74 109 0.0 0.0 0.00 0.00 0.00 92 1017.7
20210921061421 74 108 0.0 0.0 0.00 0.00 0.00 92 1017.8
20210921060920 74 108 0.0 1.0 0.00 0.00 0.00 92 1017.6
20210921060419 75 108 0.0 1.0 0.00 0.00 0.00 92 1017.8
20210921055918 75 121 0.0 0.0 0.00 0.00 0.00 91 1017.9
20210921055417 75 112 1.0 2.0 0.00 0.00 0.00 91 1017.8
20210921054916 75 111 0.0 0.0 0.00 0.00 0.00 91 1017.9
20210921054415 75 111 0.0 0.0 0.00 0.00 0.00 91 1017.9
20210921053913 75 111 0.0 0.0 0.00 0.00 0.00 91 1018.0
20210921053412 75 111 0.0 0.0 0.00 0.00 0.00 91 1018.0
20210921052906 75 111 0.0 0.0 0.00 0.00 0.00 91 1018.0
20210921052405 75 107 1.0 1.0 0.00 0.00 0.00 91 1018.1
20210921051904 75 116 0.0 1.0 0.00 0.00 0.00 91 1018.1
20210921051403 75 116 0.0 0.0 0.00 0.00 0.00 91 1018.2
20210921050855 75 115 0.0 0.0 0.00 0.00 0.00 91 1018.3
20210921050351 75 115 0.0 0.0 0.00 0.00 0.00 91 1018.2
20210921045849 75 116 0.0 0.0 0.00 0.02 0.02 91 1018.1
20210921045347 75 108 0.0 1.0 0.00 0.02 0.02 91 1018.5
20210921044846 75 109 0.0 1.0 0.00 0.02 0.02 91 1018.4
20210921044344 75 104 0.0 1.0 0.00 0.02 0.02 91 1018.3
20210921043843 75 108 0.0 1.0 0.00 0.02 0.02 91 1018.4
20210921043341 75 114 0.0 0.0 0.00 0.02 0.02 91 1018.4
20210921042841 75 100 1.0 2.0 0.00 0.02 0.02 91 1018.5
20210921042340 75 107 0.0 1.0 0.00 0.02 0.02 91 1018.2
20210921041839 75 116 0.0 0.0 0.00 0.02 0.02 91 1018.0
20210921041337 75 110 0.0 1.0 0.00 0.02 0.02 91 1018.2
20210921040837 75 111 0.0 0.0 0.00 0.02 0.02 91 1018.3
20210921040335 75 106 0.0 1.0 0.00 0.02 0.02 91 1018.2
20210921035834 75 110 0.0 1.0 0.00 0.02 0.02 91 1018.1
20210921035333 75 108 0.0 1.0 0.00 0.02 0.02 91 1018.1
20210921034831 75 115 0.0 2.0 0.00 0.02 0.02 91 1018.4
20210921034329 75 104 0.0 1.0 0.00 0.02 0.02 91 1018.4
20210921033829 75 109 0.0 0.0 0.00 0.02 0.02 90 1018.0
20210921033329 75 108 0.0 1.0 0.00 0.02 0.02 90 1018.2
20210921032827 75 106 0.0 1.0 0.00 0.02 0.02 90 1018.3
20210921032325 75 113 0.0 1.0 0.00 0.02 0.02 90 1018.2
20210921031824 75 107 0.0 2.0 0.00 0.02 0.02 90 1018.4
20210921031322 75 103 1.0 1.0 0.00 0.02 0.02 90 1018.3
20210921030822 75 106 0.0 1.0 0.00 0.02 0.02 90 1018.3
20210921030322 75 111 0.0 1.0 0.00 0.02 0.02 90 1018.4
20210921025821 75 115 0.0 1.0 0.00 0.02 0.02 90 1018.3
20210921025320 75 111 0.0 1.0 0.00 0.02 0.02 90 1018.2
20210921024820 75 106 1.0 2.0 0.00 0.02 0.02 91 1018.2
20210921024319 75 103 0.0 1.0 0.00 0.02 0.02 90 1017.9
20210921023813 75 106 0.0 1.0 0.00 0.02 0.02 90 1018.0
20210921023312 76 106 0.0 1.0 0.00 0.02 0.02 90 1018.1
20210921022809 76 104 0.0 1.0 0.00 0.02 0.02 90 1018.0
20210921022309 76 101 0.0 1.0 0.00 0.02 0.02 90 1018.0
20210921021807 76 108 0.0 1.0 0.00 0.02 0.02 90 1017.9
20210921021301 76 103 0.0 1.0 0.00 0.02 0.02 90 1017.9
20210921020800 76 101 0.0 2.0 0.00 0.02 0.02 89 1017.8